Time,TemperatureF,DewpointF,PressureIn,WindDirection,WindDirectionDegrees,WindSpeedMPH,WindSpeedGustMPH,Humidity,HourlyPrecipIn,Conditions,Clouds,dailyrainin,SoftwareType,DateUTC
2013-08-08 00:02:00,54.0,-99.9,-100.00,West,270,1.0,4.0,-999,-99.99,,,-99.99,,2013-08-08 07:02:00,
2013-08-08 00:22:00,53.0,-99.9,-100.00,West,270,3.0,4.0,-999,-99.99,,,-99.99,,2013-08-08 07:22:00,
2013-08-08 00:43:00,54.0,-99.9,-100.00,West,270,4.0,5.0,-999,-99.99,,,-99.99,,2013-08-08 07:43:00,
2013-08-08 00:53:00,54.0,-99.9,-100.00,West,270,4.0,5.0,-999,-99.99,,,-99.99,,2013-08-08 07:53:00,
2013-08-08 01:02:00,53.0,-99.9,-100.00,West,270,6.0,7.0,-999,-99.99,,,-99.99,,2013-08-08 08:02:00,
2013-08-08 01:11:00,53.0,-99.9,-100.00,West,270,6.0,7.0,-999,-99.99,,,-99.99,,2013-08-08 08:11:00,
2013-08-08 01:22:00,53.0,-99.9,-100.00,West,270,8.0,9.0,-999,-99.99,,,-99.99,,2013-08-08 08:22:00,
2013-08-08 01:32:00,52.0,-99.9,-100.00,West,270,10.0,12.0,-999,-99.99,,,-99.99,,2013-08-08 08:32:00,
2013-08-08 01:53:00,51.0,-99.9,-100.00,West,270,12.0,14.0,-999,-99.99,,,-99.99,,2013-08-08 08:53:00,
2013-08-08 02:02:00,51.0,-99.9,-100.00,West,270,9.0,14.0,-999,-99.99,,,-99.99,,2013-08-08 09:02:00,
2013-08-08 02:12:00,51.0,-99.9,-100.00,West,270,9.0,14.0,-999,-99.99,,,-99.99,,2013-08-08 09:12:00,
2013-08-08 02:22:00,52.0,-99.9,-100.00,West,270,10.0,14.0,-999,-99.99,,,-99.99,,2013-08-08 09:22:00,
2013-08-08 02:53:00,52.0,-99.9,-100.00,SW,225,6.0,10.0,-999,-99.99,,,-99.99,,2013-08-08 09:53:00,
2013-08-08 03:02:00,53.0,-99.9,-100.00,SW,225,4.0,9.0,-999,-99.99,,,-99.99,,2013-08-08 10:02:00,
2013-08-08 03:12:00,53.0,-99.9,-100.00,SW,225,2.0,7.0,-999,-99.99,,,-99.99,,2013-08-08 10:12:00,
2013-08-08 03:22:00,53.0,-99.9,-100.00,SW,225,2.0,7.0,-999,-99.99,,,-99.99,,2013-08-08 10:22:00,
2013-08-08 03:33:00,53.0,-99.9,-100.00,South,180,1.0,6.0,-999,-99.99,,,-99.99,,2013-08-08 10:33:00,
2013-08-08 03:43:00,53.0,-99.9,-100.00,SE,135,0.0,4.0,-999,-99.99,,,-99.99,,2013-08-08 10:43:00,
2013-08-08 03:52:00,53.0,-99.9,-100.00,SE,135,0.0,4.0,-999,-99.99,,,-99.99,,2013-08-08 10:52:00,
2013-08-08 04:02:00,53.0,-99.9,-100.00,SW,225,1.0,3.0,-999,-99.99,,,-99.99,,2013-08-08 11:02:00,
2013-08-08 04:22:00,54.0,-99.9,-100.00,South,180,0.0,3.0,-999,-99.99,,,-99.99,,2013-08-08 11:22:00,
2013-08-08 04:32:00,54.0,-99.9,-100.00,SE,135,0.0,1.0,-999,-99.99,,,-99.99,,2013-08-08 11:32:00,
2013-08-08 04:52:00,53.0,-99.9,-100.00,SE,135,2.0,2.0,-999,-99.99,,,-99.99,,2013-08-08 11:52:00,
2013-08-08 05:02:00,54.0,-99.9,-100.00,SE,135,2.0,3.0,-999,-99.99,,,-99.99,,2013-08-08 12:02:00,
2013-08-08 05:11:00,54.0,-99.9,-100.00,SE,135,2.0,3.0,-999,-99.99,,,-99.99,,2013-08-08 12:11:00,
2013-08-08 05:22:00,54.0,-99.9,-100.00,SE,135,1.0,3.0,-999,-99.99,,,-99.99,,2013-08-08 12:22:00,
2013-08-08 05:32:00,54.0,-99.9,-100.00,SE,135,1.0,2.0,-999,-99.99,,,-99.99,,2013-08-08 12:32:00,
2013-08-08 05:53:00,54.0,-99.9,-100.00,SE,135,1.0,1.0,-999,-99.99,,,-99.99,,2013-08-08 12:53:00,
2013-08-08 06:12:00,54.0,-99.9,-100.00,SE,135,1.0,2.0,-999,-99.99,,,-99.99,,2013-08-08 13:12:00,
2013-08-08 06:22:00,54.0,-99.9,-100.00,SE,135,0.0,2.0,-999,-99.99,,,-99.99,,2013-08-08 13:22:00,
2013-08-08 06:32:00,54.0,-99.9,-100.00,SE,135,0.0,1.0,-999,-99.99,,,-99.99,,2013-08-08 13:32:00,
2013-08-08 06:53:00,54.0,-99.9,-100.00,South,180,0.0,1.0,-999,-99.99,,,-99.99,,2013-08-08 13:53:00,
2013-08-08 07:02:00,54.0,-99.9,-100.00,SE,135,0.0,1.0,-999,-99.99,,,-99.99,,2013-08-08 14:02:00,
2013-08-08 07:11:00,54.0,-99.9,-100.00,SE,135,0.0,1.0,-999,-99.99,,,-99.99,,2013-08-08 14:11:00,
2013-08-08 07:22:00,54.0,-99.9,-100.00,South,180,0.0,1.0,-999,-99.99,,,-99.99,,2013-08-08 14:22:00,
2013-08-08 07:32:00,54.0,-99.9,-100.00,North,-999,0.0,0.0,-999,-99.99,,,-99.99,,2013-08-08 14:32:00,
2013-08-08 07:53:00,54.0,-99.9,-100.00,SW,225,2.0,2.0,-999,-99.99,,,-99.99,,2013-08-08 14:53:00,
2013-08-08 08:02:00,54.0,-99.9,-100.00,West,270,1.0,2.0,-999,-99.99,,,-99.99,,2013-08-08 15:02:00,
2013-08-08 08:12:00,54.0,-99.9,-100.00,West,270,1.0,2.0,-999,-99.99,,,-99.99,,2013-08-08 15:12:00,
2013-08-08 08:22:00,54.0,-99.9,-100.00,West,270,1.0,2.0,-999,-99.99,,,-99.99,,2013-08-08 15:22:00,
2013-08-08 08:53:00,55.0,-99.9,-100.00,SE,135,0.0,2.0,-999,-99.99,,,-99.99,,2013-08-08 15:53:00,
2013-08-08 09:02:00,55.0,-99.9,-100.00,SE,135,1.0,2.0,-999,-99.99,,,-99.99,,2013-08-08 16:02:00,
2013-08-08 09:22:00,55.0,-99.9,-100.00,SE,135,1.0,2.0,-999,-99.99,,,-99.99,,2013-08-08 16:22:00,
2013-08-08 09:32:00,56.0,-99.9,-100.00,SE,135,1.0,2.0,-999,-99.99,,,-99.99,,2013-08-08 16:32:00,
2013-08-08 09:52:00,56.0,-99.9,-100.00,SE,135,0.0,2.0,-999,-99.99,,,-99.99,,2013-08-08 16:52:00,
2013-08-08 10:11:00,57.0,-99.9,-100.00,SE,135,0.0,1.0,-999,-99.99,,,-99.99,,2013-08-08 17:11:00,
2013-08-08 10:22:00,57.0,-99.9,-100.00,East,90,0.0,1.0,-999,-99.99,,,-99.99,,2013-08-08 17:22:00,
2013-08-08 10:32:00,58.0,-99.9,-100.00,SE,135,0.0,1.0,-999,-99.99,,,-99.99,,2013-08-08 17:32:00,
2013-08-08 10:43:00,58.0,-99.9,-100.00,SE,135,0.0,1.0,-999,-99.99,,,-99.99,,2013-08-08 17:43:00,
2013-08-08 10:52:00,58.0,-99.9,-100.00,SE,135,0.0,1.0,-999,-99.99,,,-99.99,,2013-08-08 17:52:00,
2013-08-08 11:02:00,59.0,-99.9,-100.00,NE,45,1.0,6.0,-999,-99.99,,,-99.99,,2013-08-08 18:02:00,
2013-08-08 11:22:00,59.0,-99.9,-100.00,North,0,7.0,9.0,-999,-99.99,,,-99.99,,2013-08-08 18:22:00,
2013-08-08 11:43:00,59.0,-99.9,-100.00,North,0,9.0,10.0,-999,-99.99,,,-99.99,,2013-08-08 18:43:00,
2013-08-08 11:53:00,59.0,-99.9,-100.00,NE,45,9.0,11.0,-999,-99.99,,,-99.99,,2013-08-08 18:53:00,
2013-08-08 12:02:00,60.0,-99.9,-100.00,NE,45,9.0,14.0,-999,-99.99,,,-99.99,,2013-08-08 19:02:00,
2013-08-08 12:22:00,60.0,-99.9,-100.00,NE,45,10.0,14.0,-999,-99.99,,,-99.99,,2013-08-08 19:22:00,
2013-08-08 12:32:00,60.0,-99.9,-100.00,North,0,11.0,13.0,-999,-99.99,,,-99.99,,2013-08-08 19:32:00,
2013-08-08 12:43:00,60.0,-99.9,-100.00,North,0,12.0,14.0,-999,-99.99,,,-99.99,,2013-08-08 19:43:00,
2013-08-08 12:59:00,60.0,-99.9,-100.00,North,0,12.0,14.0,-999,-99.99,,,-99.99,,2013-08-08 19:59:00,
2013-08-08 13:11:00,61.0,-99.9,-100.00,North,0,11.0,15.0,-999,-99.99,,,-99.99,,2013-08-08 20:11:00,
2013-08-08 13:22:00,61.0,-99.9,-100.00,NE,45,11.0,15.0,-999,-99.99,,,-99.99,,2013-08-08 20:22:00,
2013-08-08 13:32:00,61.0,-99.9,-100.00,NE,45,11.0,15.0,-999,-99.99,,,-99.99,,2013-08-08 20:32:00,
2013-08-08 13:53:00,61.0,-99.9,-100.00,North,0,14.0,17.0,-999,-99.99,,,-99.99,,2013-08-08 20:53:00,
2013-08-08 14:27:00,61.0,-99.9,-100.00,NE,45,13.0,17.0,-999,-99.99,,,-99.99,,2013-08-08 21:27:00,
2013-08-08 14:35:00,62.0,-99.9,-100.00,NE,45,16.0,19.0,-999,-99.99,,,-99.99,,2013-08-08 21:35:00,
2013-08-08 14:46:00,62.0,-99.9,-100.00,NE,45,14.0,19.0,-999,-99.99,,,-99.99,,2013-08-08 21:46:00,
2013-08-08 14:57:00,62.0,-99.9,-100.00,NE,45,14.0,19.0,-999,-99.99,,,-99.99,,2013-08-08 21:57:00,
2013-08-08 15:26:00,62.0,-99.9,-100.00,NE,45,12.0,18.0,-999,-99.99,,,-99.99,,2013-08-08 22:26:00,
2013-08-08 15:37:00,62.0,-99.9,-100.00,NE,45,12.0,18.0,-999,-99.99,,,-99.99,,2013-08-08 22:37:00,
2013-08-08 15:50:00,60.0,-99.9,-100.00,NE,45,10.0,19.0,-999,-99.99,,,-99.99,,2013-08-08 22:50:00,
2013-08-08 15:58:00,60.0,-99.9,-100.00,NE,45,10.0,19.0,-999,-99.99,,,-99.99,,2013-08-08 22:58:00,
2013-08-08 16:15:00,61.0,-99.9,-100.00,NE,45,8.0,18.0,-999,-99.99,,,-99.99,,2013-08-08 23:15:00,
2013-08-08 16:26:00,60.0,-99.9,-100.00,NE,45,13.0,20.0,-999,-99.99,,,-99.99,,2013-08-08 23:26:00,
2013-08-08 16:51:00,62.0,-99.9,-100.00,NE,45,18.0,26.0,-999,-99.99,,,-99.99,,2013-08-08 23:51:00,
2013-08-08 16:58:00,62.0,-99.9,-100.00,NE,45,18.0,26.0,-999,-99.99,,,-99.99,,2013-08-08 23:58:00,
2013-08-08 17:07:00,63.0,-99.9,-100.00,NE,45,20.0,26.0,-999,-99.99,,,-99.99,,2013-08-09 00:07:00,
2013-08-08 17:17:00,63.0,-99.9,-100.00,NE,45,20.0,26.0,-999,-99.99,,,-99.99,,2013-08-09 00:17:00,
2013-08-08 17:36:00,62.0,-99.9,-100.00,NE,45,20.0,27.0,-999,-99.99,,,-99.99,,2013-08-09 00:36:00,
2013-08-08 17:58:00,60.0,-99.9,-100.00,NE,45,23.0,29.0,-999,-99.99,,,-99.99,,2013-08-09 00:58:00,
2013-08-08 18:27:00,58.0,-99.9,-100.00,NE,45,22.0,31.0,-999,-99.99,,,-99.99,,2013-08-09 01:27:00,
2013-08-08 18:38:00,57.0,-99.9,-100.00,NE,45,20.0,31.0,-999,-99.99,,,-99.99,,2013-08-09 01:38:00,
2013-08-08 19:01:00,57.0,-99.9,-100.00,NE,45,21.0,30.0,-999,-99.99,,,-99.99,,2013-08-09 02:01:00,
2013-08-08 19:26:00,56.0,-99.9,-100.00,NE,45,16.0,27.0,-999,-99.99,,,-99.99,,2013-08-09 02:26:00,
2013-08-08 20:08:00,55.0,-99.9,-100.00,NE,45,22.0,31.0,-999,-99.99,,,-99.99,,2013-08-09 03:08:00,
2013-08-08 20:16:00,55.0,-99.9,-100.00,NE,45,22.0,31.0,-999,-99.99,,,-99.99,,2013-08-09 03:16:00,
2013-08-08 20:26:00,55.0,-99.9,-100.00,NE,45,21.0,31.0,-999,-99.99,,,-99.99,,2013-08-09 03:26:00,
2013-08-08 20:36:00,55.0,-99.9,-100.00,NE,45,16.0,28.0,-999,-99.99,,,-99.99,,2013-08-09 03:36:00,
2013-08-08 21:02:00,55.0,-99.9,-100.00,NE,45,14.0,19.0,-999,-99.99,,,-99.99,,2013-08-09 04:02:00,
2013-08-08 21:12:00,55.0,-99.9,-100.00,NE,45,14.0,19.0,-999,-99.99,,,-99.99,,2013-08-09 04:12:00,
2013-08-08 21:23:00,55.0,-99.9,-100.00,NE,45,14.0,17.0,-999,-99.99,,,-99.99,,2013-08-09 04:23:00,
2013-08-08 21:33:00,55.0,-99.9,-100.00,NE,45,12.0,16.0,-999,-99.99,,,-99.99,,2013-08-09 04:33:00,
2013-08-08 21:53:00,55.0,-99.9,-100.00,NE,45,9.0,16.0,-999,-99.99,,,-99.99,,2013-08-09 04:53:00,
2013-08-08 22:02:00,55.0,-99.9,-100.00,NE,45,10.0,15.0,-999,-99.99,,,-99.99,,2013-08-09 05:02:00,
2013-08-08 22:12:00,55.0,-99.9,-100.00,NE,45,10.0,15.0,-999,-99.99,,,-99.99,,2013-08-09 05:12:00,
2013-08-08 22:22:00,54.0,-99.9,-100.00,NE,45,9.0,14.0,-999,-99.99,,,-99.99,,2013-08-09 05:22:00,
2013-08-08 22:33:00,54.0,-99.9,-100.00,NE,45,9.0,14.0,-999,-99.99,,,-99.99,,2013-08-09 05:33:00,
2013-08-08 22:43:00,54.0,-99.9,-100.00,NE,45,6.0,14.0,-999,-99.99,,,-99.99,,2013-08-09 05:43:00,
2013-08-08 22:52:00,54.0,-99.9,-100.00,NE,45,6.0,14.0,-999,-99.99,,,-99.99,,2013-08-09 05:52:00,
2013-08-08 23:01:00,54.0,-99.9,-100.00,NE,45,8.0,16.0,-999,-99.99,,,-99.99,,2013-08-09 06:01:00,
2013-08-08 23:22:00,54.0,-99.9,-100.00,NE,45,8.0,16.0,-999,-99.99,,,-99.99,,2013-08-09 06:22:00,
2013-08-08 23:32:00,54.0,-99.9,-100.00,NE,45,7.0,12.0,-999,-99.99,,,-99.99,,2013-08-09 06:32:00,
2013-08-08 23:43:00,55.0,-99.9,-100.00,SE,135,3.0,9.0,-999,-99.99,,,-99.99,,2013-08-09 06:43:00,
2013-08-08 23:52:00,55.0,-99.9,-100.00,SE,135,3.0,9.0,-999,-99.99,,,-99.99,,2013-08-09 06:52:00,